TIME,DELAY(SENSOR),PRES,OXYGEN,RAWTEMP,T(OPTODE),TCPHASE,FLUOR,BETA(BETA700),BETA(BETA412),BETA(BETA440),CDOM,C(CSC),ED(ED412.40),ED(ED444.00),ED(ED489.70),ED(ED554.30),LU(LU411.80),LU(LU443.40),LU(LU489.60),LU(LU554.10),COMP,TILTX,TILTY,CHECK
1370751815,5806,782.0300292968750000,41.4466400146484400,653.1187744140625000,4.8542518615722660,54.6982688903808600,54,102,86,78,79,14844,2147750336,2147425554,2148010477,2147875328,2147632868,2147056786,2148256393,2147198418,373,4,13,57515
1370755411,5808,817.2600097656250000,44.5702400207519500,660.4517822265625000,4.6130981445312500,54.3248710632324200,53,99,86,79,80,14844,2147753225,2147427748,2148012114,2147873197,2147638454,2147050861,2148255049,2147192576,635,4,13,39582
1370759011,5808,828.8099975585938000,45.4766197204589840,660.4317016601562000,4.6137599945068360,54.1914215087890600,52,99,84,79,80,14845,2147752877,2147424329,2148009280,2147876946,2147640438,2147057408,2148256548,2147200896,495,4,13,3954
1370762611,5810,848.3699951171875000,46.8695602416992200,662.7847290039062000,4.5362510681152340,54.0205001831054700,54,99,84,78,79,14844,2147758171,2147424393,2148010678,2147874971,2147640923,2147058148,2148259392,2147198281,406,4,13,57383
1370766211,5804,864.7100219726562000,46.4693412780761700,662.2072753906250000,4.5552768707275390,54.0705986022949200,52,98,86,77,79,14845,2147753600,2147425526,2148008694,2147875126,2147640530,2147053312,2148257280,2147196169,3481,4,13,32800
1370769811,5808,853.9799804687500000,46.8165206909179700,663.1422729492188000,4.5244688987731930,54.0348014831543000,53,100,86,80,79,14847,2147755492,2147428388,2148010697,2147877586,2147638994,2147058130,2148257709,2147193270,658,4,13,14036
1370773411,5805,873.7899780273438000,48.5279998779296900,666.3621826171875000,4.4182910919189450,53.8336105346679700,52,99,84,78,80,14844,2147755181,2147423844,2148010523,2147872402,2147638656,2147057453,2148257252,2147191140,3477,4,13,6460
1370777011,5804,866.1900024414062000,48.8968505859375000,666.8035278320312000,4.4037342071533200,53.7817802429199200,53,100,88,79,79,14845,2147753664,2147425453,2148010038,2147874130,2147641426,2147054381,2148259611,2147195337,828,4,13,28988
1370780611,5809,872.9699707031250000,48.1649398803710940,668.9647827148438000,4.3323860168457030,53.9107513427734400,53,100,84,80,79,14841,2147755300,2147425481,2148012918,2147872749,2147640850,2147058660,2148259986,2147195538,3392,4,13,34985
1370784211,5810,901.1400146484375000,49.3323516845703100,670.0093994140625000,4.2978858947753910,53.7638511657714840,53,97,87,81,80,14845,2147753298,2147423012,2148011355,2147876251,2147637897,2147056822,2148255158,2147195803,3528,4,13,59261
1370787811,5812,902.1799926757812000,48.6995391845703100,669.4053955078125000,4.3178372383117680,53.8408393859863300,52,99,86,78,79,14844,2147752420,2147421403,2148008228,2147874304,2147639268,2147052553,2148260077,2147197266,61,4,13,61586
1370791411,5806,911.5800170898438000,48.3897590637207000,668.8906860351562000,4.3348331451416020,53.8802986145019500,51,97,84,78,79,14832,2147752164,2147425846,2148011062,2147875968,2147641627,2147054070,2148258614,2147198354,3563,4,13,62071
1370795011,5814,932.8300170898438000,48.4136695861816400,672.5239257812500000,4.2147870063781740,53.9181594848632800,53,99,87,79,80,14837,2147757860,2147425718,2148011885,2147874560,2147641993,2147054902,2148260361,2147198912,3506,4,13,22735
1370798611,5810,946.7199707031250000,48.6343193054199200,670.6879882812500000,4.2754669189453125,53.8681793212890600,52,98,87,78,80,14833,2147757568,2147423232,2148010404,2147877394,2147645385,2147054162,2148255451,2147195977,3498,4,13,59729
1370802211,5811,937.7000122070312000,48.5798492431640600,671.4176025390625000,4.2513580322265625,53.8836288452148440,53,99,89,79,79,14838,2147755556,2147424502,2148010002,2147874916,2147641298,2147054125,2148259410,2147194770,126,4,13,33626
1370805811,5805,964.8900146484375000,48.5444793701171900,673.5844116210938000,4.1797180175781250,53.9189796447753900,51,98,85,78,79,14835,2147757440,2147423506,2148009673,2147878857,2147642934,2147051456,2148257682,2147196690,386,4,13,22274
1370809411,5807,957.4099731445312000,48.9458198547363300,673.9276733398438000,4.1683640480041500,53.8677482604980500,52,100,86,79,80,14836,2147755328,2147423451,2148010029,2147874038,2147641773,2147049920,2148261065,2147193243,3485,4,13,19413
1370813011,5810,953.8400268554688000,49.5158996582031250,675.3419799804688000,4.1215691566467285,53.8021202087402340,52,100,84,81,80,14835,2147757778,2147426386,2148011200,2147873517,2147643254,2147053010,2148262070,2147194102,497,4,13,47275
1370816611,5807,979.3099975585938000,51.3498191833496100,678.0803222656250000,4.0309047698974610,53.5906906127929700,52,97,84,79,80,14835,2147759076,2147427830,2148010697,2147873737,2147642944,2147054125,2148266304,2147194230,134,4,13,48515
1370820211,5811,983.0200195312500000,50.9662818908691400,678.4406127929688000,4.0189671516418460,53.6435585021972660,53,97,82,78,79,14836,2147756946,2147426752,2148009179,2147873892,2147644077,2147052553,2148260297,2147193910,94,4,13,17648
1370823811,5808,973.6900024414062000,51.7764282226562500,679.7678222656250000,3.9749848842620850,53.5524482727050800,52,97,84,79,80,14836,2147756598,2147424100,2148013312,2147875812,2147641444,2147050221,2148262436,2147196525,517,4,13,37734
1370827411,5809,983.7700195312500000,52.3356704711914060,680.2415771484375000,3.9592819213867188,53.4836502075195300,52,97,86,80,80,14835,2147760292,2147423872,2148010340,2147877485,2147639168,2147057691,2148260571,2147194560,2810,4,13,58105
1370831011,5806,986.5900268554688000,52.4646301269531250,680.3118896484375000,3.9569509029388428,53.4656906127929700,52,100,89,78,80,14831,2147756754,2147424310,2148009892,2147876388,2147646454,2147047506,2148262683,2147194514,3586,4,13,52438
1370834611,5807,996.1400146484375000,52.3690605163574200,679.8638916015625000,3.9718000888824463,53.4759902954101560,53,98,86,79,79,14832,2147759542,2147424301,2148010459,2147875885,2147642486,2147053878,2148264704,2147197211,1634,4,13,57855
1370838211,5806,995.2800292968750000,51.9244499206543000,678.2583007812500000,4.0250048637390140,53.5159683227539060,52,98,84,79,80,14830,2147755913,2147425298,2148013805,2147872000,2147641691,2147052918,2148266477,2147196059,51,4,13,13660
1370841811,5806,993.5800170898438000,51.1928100585937500,676.9843139648438000,4.0672020912170410,53.5918998718261700,53,98,86,79,80,14834,2147754569,2147423808,2148010413,2147875373,2147641344,2147052864,2148256667,2147200896,2837,4,14,32625
1370845411,5809,993.6199951171875000,50.4947090148925800,676.9290161132812000,4.0690331459045410,53.6892890930175800,53,100,85,78,80,14833,2147757595,2147426953,2148007981,2147875812,2147639762,2147054592,2148259309,2147198454,3469,4,13,56400
1370849011,5809,999.0700073242188000,50.5668182373046900,676.5375976562500000,4.0819931030273440,53.6711387634277340,52,98,82,78,79,14830,2147755154,2147425097,2148011355,2147875245,2147642002,2147052662,2148261184,2147197842,363,4,13,54822
1370852611,5810,1003.8400268554688000,50.3479995727539060,675.3897094726562000,4.1199889183044430,53.6928405761718750,53,99,83,79,81,14825,2147754770,2147422308,2148009270,2147876955,2147642834,2147048137,2148267437,2147196946,3022,4,13,45631
1370856211,5809,1010.7800292968750000,49.8020095825195300,674.7180175781250000,4.1422181129455570,53.7595710754394500,52,98,86,78,79,14826,2147757677,2147424064,2148009161,2147872630,2147642925,2147053449,2148263844,2147193773,375,4,13,43317
1370859811,5809,997.2800292968750000,49.3448600769043000,675.2603759765625000,4.1242709159851070,53.8283309936523440,52,99,86,78,81,14828,2147752429,2147425819,2148009417,2147875163,2147642358,2147050825,2148257325,2147201572,3157,4,13,51758
1370863411,5810,989.8400268554688000,50.3957290649414060,677.0648193359375000,4.0645351409912110,53.7047500610351560,52,99,86,79,79,14831,2147756480,2147423433,2148011090,2147874816,2147639085,2147053211,2148261056,2147196141,669,4,13,62148
1370867011,5808,997.7100219726562000,50.9798202514648440,676.8649902343750000,4.0711522102355960,53.6201515197753900,53,101,85,80,79,14831,2147754477,2147425462,2148008393,2147875245,2147641901,2147050422,2148262409,2147194084,3485,4,13,35630
1370870611,5807,996.1400146484375000,50.2185096740722660,676.2255859375000000,4.0923190116882320,53.7214889526367200,52,102,84,79,80,14827,2147752786,2147426157,2148010989,2147875154,2147643812,2147045970,2148262052,2147197101,3545,4,13,10496
1370874211,5807,987.6799926757812000,50.6621398925781250,677.7307739257812000,4.0424799919128420,53.6770591735839840,53,102,83,79,78,14808,2147758070,2147424630,2148013065,2147877440,2147643245,2147053001,2148262747,2147195373,303,4,13,6867
1370877811,5810,987.2700195312500000,51.1758384704589840,678.9694824218750000,4.0014400482177730,53.6202888488769500,53,101,85,78,81,14809,2147757339,2147424466,2148010633,2147873828,2147644224,2147047936,2148263250,2147196763,3298,4,13,42927
1370881411,5807,994.9000244140625000,51.1017494201660160,678.2614135742188000,4.0249018669128420,53.6239318847656250,53,98,87,80,80,14806,2147758262,2147426258,2148012123,2147876406,2147640448,2147052224,2148262692,2147198765,421,4,13,65317
1370885011,5805,999.7700195312500000,50.5043487548828100,676.9025268554688000,4.0699119567871090,53.6907997131347660,53,99,86,79,79,14810,2147759222,2147426285,2148013056,2147878491,2147641645,2147052754,2148263908,2147196041,169,4,13,5368
1370888611,5809,998.5100097656250000,50.6392707824707000,676.7678222656250000,4.0743689537048340,53.6679801940918000,52,97,88,79,80,14807,2147757174,2147421513,2148010331,2147874057,2147644370,2147055049,2148263387,2147197430,3042,4,13,5407
1370892211,5810,1001.6900024414062000,50.6549301147460940,676.4822998046875000,4.0838241577148440,53.6651611328125000,52,97,84,79,80,14806,2147754898,2147426852,2148011181,2147874230,2147641627,2147056228,2148267858,2147194486,98,4,13,39325
1370895056,5809,998.9899902343750000,50.6928787231445300,676.5534057617188000,4.0814690589904785,53.6594886779785160,52,106,86,79,79,14831,2147752466,2147424338,2148012617,2147875227,2147642084,2147055268,2148261952,2147196617,263,4,13,54580
